Weather History for Linden, NJ

Change the Weather History Date:

Sunday, November 3, 2013

  Actual Average (KEWR) Record (KEWR)
Temperature  
Mean Temperature 45 °F 51 °F  
Max Temperature 53 °F 59 °F 81 °F (2003)
Min Temperature 37 °F 43 °F 29 °F (1951)
Degree Days  
Heating Degree Days 20 14  
Month to date heating degree days 42  
Since 1 July heating degree days 363  
Cooling Degree Days 0 0  
Month to date cooling degree days 0  
Year to date cooling degree days 1191  
Moisture  
Dew Point 32 °F    
Average Humidity 56    
Maximum Humidity 76    
Minimum Humidity 35    
Precipitation  
Precipitation 0.00 in 0.12 in 2.05 in (1992)
Month to date precipitation 0.36  
Year to date precipitation 39.15  
Snow  
Snow 0.00 in 0.00 in T in (1951)
Month to date snowfall 0.0  
Since 1 July snowfall 0.0  
Snow Depth -    
Sea Level Pressure  
Sea Level Pressure 30.13 in    
Wind  
Wind Speed 6 mph (North)    
Max Wind Speed 14 mph    
Max Gust Speed 22 mph    
Visibility 10 miles    
Events      
T = Trace of Precipitation, MM = Missing Value Source: NWS Daily Summary

Daily Weather History Graph

Daily Weather History Graph

Search for Another Location

Airport:

Trip Planner

Search our weather history database for the weather conditions in past years. The results will help you decide how hot, cold, wet, or windy it might be!

Date:

Astronomy

Nov. 03, 2013 Rise Set
Actual Time 6:29 AM EST 4:50 PM EST
Civil Twilight 6:01 AM EST 5:19 PM EST
Nautical Twilight 5:28 AM EST 5:51 PM EST
Astronomical Twilight 4:56 AM EST 6:23 PM EST
Moon 6:30 AM EST (11/3) 5:03 PM EST (11/3)
Length of Visible Light 11h 18m
Length of Day
10h 21m
New Moon, 0% of the Moon is Illuminated
Nov 3
New Moon
Nov 10
First Quarter
Nov 17
Full
Nov 25
Last Quarter
Dec 2
New

Hourly Weather History & Observations

Time (EST) Temp. Windchill Dew Point Humidity Pressure Visibility Wind Dir Wind Speed Gust Speed Precip Events Conditions
12:15 AM 51.1 °F - 40.5 °F 67% 29.81 in 10.0 mi Calm Calm - N/A   Clear
12:35 AM 52.9 °F - 40.6 °F 63% 29.82 in 10.0 mi Calm Calm - N/A   Clear
12:55 AM 53.2 °F - 40.5 °F 62% 29.83 in 10.0 mi Calm Calm - N/A   Clear
1:15 AM 52.7 °F - 40.1 °F 62% 29.83 in 10.0 mi Calm Calm - N/A   Clear
1:35 AM 52.7 °F - 40.1 °F 62% 29.83 in 10.0 mi Calm Calm - N/A   Clear
1:55 AM 51.4 °F - 40.3 °F 66% 29.84 in 10.0 mi NW 4.6 mph - N/A   Clear
1:15 AM 50.5 °F - 40.5 °F 68% 29.85 in 10.0 mi WNW 3.5 mph - N/A   Clear
1:35 AM 48.0 °F - 40.1 °F 74% 29.86 in 10.0 mi NW 3.5 mph - N/A   Scattered Clouds
1:55 AM 49.1 °F - 40.8 °F 73% 29.86 in 10.0 mi WNW 3.5 mph - N/A   Clear
2:15 AM 48.9 °F - 40.1 °F 72% 29.87 in 10.0 mi Calm Calm - N/A   Clear
2:35 AM 49.5 °F - 40.5 °F 71% 29.87 in 10.0 mi Calm Calm - N/A   Scattered Clouds
2:55 AM 48.9 °F - 41.5 °F 76% 29.87 in 10.0 mi Calm Calm - N/A   Mostly Cloudy
3:15 AM 49.6 °F - 41.9 °F 75% 29.88 in 10.0 mi Calm Calm - N/A   Overcast
3:35 AM 51.4 °F - 41.9 °F 70% 29.89 in 10.0 mi NNW 5.8 mph - N/A   Mostly Cloudy
3:55 AM 52.0 °F - 41.9 °F 69% 29.90 in 10.0 mi North 3.5 mph - N/A   Scattered Clouds
4:15 AM 51.6 °F - 41.7 °F 69% 29.91 in 10.0 mi NNW 4.6 mph - N/A   Mostly Cloudy
4:35 AM 51.3 °F - 41.9 °F 70% 29.92 in 10.0 mi North 4.6 mph - N/A   Mostly Cloudy
4:55 AM 51.1 °F - 42.4 °F 72% 29.93 in 10.0 mi North 6.9 mph - N/A   Mostly Cloudy
5:15 AM 51.1 °F - 42.3 °F 72% 29.94 in 10.0 mi North 9.2 mph - N/A   Overcast
5:35 AM 50.5 °F - 42.1 °F 73% 29.96 in 10.0 mi North 9.2 mph - N/A   Overcast
5:55 AM 50.0 °F - 41.0 °F 71% 29.97 in 10.0 mi North 9.2 mph - N/A   Overcast
6:15 AM 49.6 °F - 39.4 °F 68% 29.98 in 10.0 mi North 13.8 mph 17.3 mph N/A   Overcast
6:35 AM 49.3 °F - 38.3 °F 66% 30.01 in 10.0 mi North 11.5 mph 17.3 mph N/A   Overcast
6:55 AM 49.1 °F - 37.9 °F 65% 30.02 in 10.0 mi North 11.5 mph 20.7 mph N/A   Overcast
7:15 AM 48.6 °F - 37.8 °F 66% 30.04 in 10.0 mi NNE 9.2 mph - N/A   Overcast
7:35 AM 48.6 °F - 37.8 °F 66% 30.06 in 10.0 mi NNE 9.2 mph - N/A   Overcast
7:55 AM 48.2 °F - 37.6 °F 67% 30.08 in 10.0 mi North 6.9 mph - N/A   Overcast
8:15 AM 48.2 °F - 37.4 °F 66% 30.09 in 10.0 mi NNE 10.4 mph 19.6 mph N/A   Overcast
8:35 AM 48.2 °F - 37.4 °F 66% 30.09 in 10.0 mi NNE 10.4 mph 16.1 mph N/A   Overcast
8:55 AM 48.2 °F - 37.2 °F 66% 30.10 in 10.0 mi North 8.1 mph - N/A   Overcast
9:15 AM 48.2 °F - 36.7 °F 64% 30.11 in 10.0 mi North 12.7 mph - N/A   Overcast
9:35 AM 48.4 °F - 36.7 °F 64% 30.12 in 10.0 mi NNW 11.5 mph 16.1 mph N/A   Overcast
9:55 AM 49.1 °F - 36.1 °F 61% 30.14 in 10.0 mi North 11.5 mph - N/A   Overcast
10:15 AM 49.1 °F - 36.0 °F 61% 30.15 in 10.0 mi North 12.7 mph 18.4 mph N/A   Overcast
10:35 AM 49.3 °F - 35.6 °F 59% 30.16 in 10.0 mi North 11.5 mph - N/A   Overcast
10:55 AM 49.1 °F - 35.6 °F 60% 30.16 in 10.0 mi NNW 12.7 mph - N/A   Overcast
11:15 AM 49.1 °F - 34.9 °F 58% 30.17 in 10.0 mi North 10.4 mph - N/A   Overcast
11:35 AM 49.1 °F - 35.1 °F 58% 30.17 in 10.0 mi NNW 10.4 mph - N/A   Overcast
11:55 AM 49.5 °F - 34.7 °F 57% 30.17 in 10.0 mi North 9.2 mph - N/A   Mostly Cloudy
12:15 PM 50.2 °F - 34.7 °F 55% 30.16 in 10.0 mi NW 11.5 mph 16.1 mph N/A   Mostly Cloudy
12:35 PM 50.9 °F - 34.2 °F 53% 30.16 in 10.0 mi NNW 10.4 mph 16.1 mph N/A   Overcast
12:55 PM 51.4 °F - 33.3 °F 50% 30.17 in 10.0 mi NNW 11.5 mph 18.4 mph N/A   Mostly Cloudy
1:15 PM 51.1 °F - 32.5 °F 49% 30.18 in 10.0 mi NNW 12.7 mph 17.3 mph N/A   Mostly Cloudy
1:35 PM 52.5 °F - 31.6 °F 45% 30.18 in 10.0 mi NNW 11.5 mph 18.4 mph N/A   Overcast
1:55 PM 52.7 °F - 30.9 °F 43% 30.18 in 10.0 mi North 10.4 mph - N/A   Overcast
2:15 PM 52.9 °F - 31.8 °F 45% 30.19 in 10.0 mi NW 13.8 mph 19.6 mph N/A   Overcast
2:35 PM 52.9 °F - 29.7 °F 41% 30.20 in 10.0 mi NW 13.8 mph - N/A   Scattered Clouds
2:55 PM 52.0 °F - 27.0 °F 38% 30.21 in 10.0 mi NW 13.8 mph 18.4 mph N/A   Clear
3:15 PM 51.8 °F - 26.1 °F 37% 30.22 in 10.0 mi North 11.5 mph 18.4 mph N/A   Clear
3:35 PM 51.6 °F - 25.5 °F 36% 30.22 in 10.0 mi North 11.5 mph 18.4 mph N/A   Clear
3:55 PM 50.5 °F - 23.9 °F 35% 30.24 in 10.0 mi North 11.5 mph 19.6 mph N/A   Clear
4:15 PM 50.0 °F - 23.9 °F 36% 30.25 in 10.0 mi North 12.7 mph 16.1 mph N/A   Clear
4:35 PM 48.6 °F - 23.0 °F 37% 30.26 in 10.0 mi North 10.4 mph 16.1 mph N/A   Clear
4:55 PM 47.7 °F - 23.0 °F 38% 30.28 in 10.0 mi North 8.1 mph 16.1 mph N/A   Clear
5:15 PM 46.9 °F - 22.1 °F 38% 30.30 in 10.0 mi North 11.5 mph - N/A   Clear
5:35 PM 45.9 °F 40.4 °F 21.2 °F 38% 30.31 in 10.0 mi NNW 11.5 mph 20.7 mph N/A   Clear
5:55 PM 45.1 °F 38.8 °F 21.0 °F 38% 30.33 in 10.0 mi North 13.8 mph 18.4 mph N/A   Clear
6:15 PM 44.1 °F 39.0 °F 22.5 °F 42% 30.34 in 10.0 mi NNE 9.2 mph - N/A   Clear
6:35 PM 42.3 °F 36.3 °F 22.8 °F 46% 30.36 in 10.0 mi North 10.4 mph - N/A   Clear
6:55 PM 41.4 °F 35.2 °F 21.0 °F 44% 30.37 in 10.0 mi North 10.4 mph 21.9 mph N/A   Clear
7:15 PM 40.8 °F 34.1 °F 21.0 °F 45% 30.38 in 10.0 mi North 11.5 mph - N/A   Clear
7:35 PM 40.3 °F 33.0 °F 21.0 °F 46% 30.39 in 10.0 mi North 12.7 mph 19.6 mph N/A   Clear
7:55 PM 40.1 °F 33.6 °F 21.2 °F 47% 30.39 in 10.0 mi NNW 10.4 mph - N/A   Clear
8:15 PM 39.6 °F 33.5 °F 21.0 °F 48% 30.40 in 10.0 mi NNW 9.2 mph 17.3 mph N/A   Clear
8:35 PM 39.2 °F 33.6 °F 20.8 °F 48% 30.40 in 10.0 mi NNW 8.1 mph - N/A   Clear
8:55 PM 39.2 °F 33.6 °F 20.8 °F 48% 30.41 in 10.0 mi NNW 8.1 mph - N/A   Clear
9:15 PM 38.8 °F 32.6 °F 20.8 °F 48% 30.41 in 10.0 mi North 9.2 mph - N/A   Clear
9:35 PM 38.7 °F 33.6 °F 20.8 °F 49% 30.42 in 10.0 mi North 6.9 mph - N/A   Clear
9:55 PM 38.3 °F 33.2 °F 20.8 °F 50% 30.43 in 10.0 mi North 6.9 mph - N/A   Clear
10:15 PM 38.3 °F 33.9 °F 20.8 °F 50% 30.45 in 10.0 mi North 5.8 mph - N/A   Clear
10:35 PM 37.9 °F 32.1 °F 20.3 °F 49% 30.45 in 10.0 mi North 8.1 mph - N/A   Clear
10:55 PM 37.8 °F 32.5 °F 20.3 °F 49% 30.46 in 10.0 mi North 6.9 mph - N/A   Clear